FW6797 Weather Reports


time (UTC)temp
C
wind
direction
speed
KPH
gust
KPH
rain 1hr
cm
rain 24hr
cm
rain mn
cm
humidity
%
barometer
mb
20260508110030 6 186 0.0 0.0 0.03 0.10 0.10 88 1012.4
20260508105506 6 186 0.0 0.0 0.03 0.10 0.10 87 1012.5
20260508105012 6 225 0.0 0.0 0.03 0.10 0.10 87 1012.5
20260508104524 7 225 0.0 0.0 0.03 0.10 0.10 87 1012.6
20260508104009 7 225 0.0 0.0 0.03 0.10 0.10 87 1012.7
20260508103510 7 225 0.0 0.0 0.03 0.10 0.10 86 1012.8
20260508103038 7 225 0.0 0.0 0.03 0.10 0.10 86 1012.8
20260508102509 7 225 0.0 3.2 0.03 0.10 0.10 85 1012.8
20260508101009 7 194 3.2 3.2 0.00 0.08 0.08 82 1012.4
20260508095507 7 264 0.0 0.0 0.00 0.08 0.08 83 1012.1
20260508095011 7 264 0.0 0.0 0.00 0.08 0.08 82 1012.1
20260508094522 7 264 0.0 0.0 0.03 0.08 0.08 82 1012.1
20260508094009 7 264 0.0 0.0 0.03 0.08 0.08 82 1012.1
20260508093511 7 264 0.0 0.0 0.03 0.08 0.08 82 1012.2
20260508093034 7 264 0.0 0.0 0.03 0.08 0.08 82 1012.2
20260508092510 7 264 0.0 0.0 0.03 0.08 0.08 81 1012.3
20260508092011 7 264 0.0 0.0 0.03 0.08 0.08 82 1012.3
20260508091528 7 264 0.0 0.0 0.03 0.08 0.08 82 1012.4
20260508091008 7 264 0.0 0.0 0.03 0.08 0.08 81 1012.4
20260508090508 8 264 0.0 1.6 0.03 0.08 0.08 81 1012.5
20260508090024 8 264 0.0 4.8 0.03 0.08 0.08 80 1012.5
20260508085507 8 315 1.6 4.8 0.03 0.08 0.08 78 1012.6
20260508085009 7 294 1.6 4.8 0.03 0.08 0.08 80 1012.7
20260508084522 7 248 0.0 3.2 0.00 0.05 0.05 79 1012.8
20260508084011 7 210 0.0 0.0 0.00 0.05 0.05 78 1012.6
20260508083507 7 191 0.0 3.2 0.00 0.05 0.05 78 1012.5
20260508083025 7 186 0.0 4.8 0.00 0.05 0.05 78 1012.3
20260508082511 7 184 1.6 4.8 0.00 0.05 0.05 79 1012.1
20260508082012 7 166 3.2 4.8 0.00 0.05 0.05 78 1012.4
20260508081527 7 191 1.6 4.8 0.00 0.05 0.05 79 1012.5
20260508081003 7 189 1.6 3.2 0.00 0.05 0.05 79 1012.4
20260508080506 7 192 0.0 0.0 0.00 0.05 0.05 80 1012.4
20260508080014 7 194 0.0 0.0 0.00 0.05 0.05 80 1012.4
20260508075508 7 194 0.0 0.0 0.00 0.05 0.05 80 1012.4
20260508075008 7 194 0.0 0.0 0.00 0.05 0.05 80 1012.4
20260508074518 7 194 0.0 0.0 0.00 0.05 0.05 79 1012.5
20260508074008 7 194 0.0 0.0 0.00 0.05 0.05 79 1012.5
20260508073507 7 194 0.0 0.0 0.00 0.05 0.05 79 1012.6
20260508073024 7 187 0.0 0.0 0.00 0.05 0.05 78 1012.6
20260508072511 7 195 0.0 0.0 0.00 0.05 0.05 79 1012.6
20260508072014 7 205 0.0 0.0 0.00 0.05 0.05 79 1012.8
20260508071532 7 196 0.0 0.0 0.00 0.05 0.05 79 1012.7
20260508071012 7 193 0.0 0.0 0.00 0.05 0.05 79 1012.8
20260508070513 7 193 0.0 3.2 0.00 0.05 0.05 79 1012.8
20260508070015 7 193 0.0 3.2 0.03 0.05 0.05 79 1012.9
20260508065506 7 205 0.0 4.8 0.03 0.05 0.05 79 1012.9
20260508065015 7 205 0.0 4.8 0.03 0.05 0.05 78 1012.9
20260508064519 7 198 1.6 4.8 0.03 0.05 0.05 78 1013.1
20260508064011 7 190 0.0 3.2 0.03 0.05 0.05 79 1013.2
20260508063509 7 190 0.0 3.2 0.03 0.05 0.05 79 1013.2
20260508063022 7 192 0.0 3.2 0.03 0.05 0.05 78 1013.2
20260508062510 7 205 0.0 0.0 0.05 0.05 0.05 78 1013.2
20260508062010 7 204 0.0 0.0 0.05 0.05 0.05 76 1013.1
20260508061523 7 192 0.0 4.8 0.05 0.05 0.05 77 1013.1
20260508061008 7 188 0.0 4.8 0.05 0.05 0.05 79 1013.0
20260508060507 7 186 0.0 0.0 0.05 0.05 0.05 80 1013.0
20260508060028 7 186 0.0 0.0 0.03 0.03 0.03 81 1013.0
20260508055508 7 186 0.0 0.0 0.03 0.03 0.03 81 1013.0
20260508055012 7 172 0.0 0.0 0.03 0.03 0.03 83 1013.0
20260508054534 7 169 0.0 0.0 0.03 0.03 0.03 84 1013.0
20260508054007 7 169 0.0 0.0 0.03 0.03 0.03 81 1013.1
20260508053506 7 169 0.0 0.0 0.03 0.03 0.03 78 1013.1
20260508053025 7 169 0.0 0.0 0.03 0.03 0.03 77 1013.2
20260508052507 7 188 0.0 0.0 0.00 0.00 0.00 74 1013.5
20260508052011 7 162 0.0 0.0 0.00 0.00 0.00 76 1013.3
20260508051522 7 162 0.0 0.0 0.00 0.00 0.00 75 1013.3
20260508051004 7 162 0.0 0.0 0.00 0.00 0.00 74 1013.4
20260508050504 7 162 0.0 0.0 0.00 0.00 0.00 73 1013.3
20260508050005 7 162 0.0 0.0 0.00 0.00 0.00 77 1013.4
20260508045502 8 162 0.0 0.0 0.00 0.00 0.00 76 1013.3
20260508045002 8 162 0.0 0.0 0.00 0.00 0.00 74 1013.3
20260508044504 8 162 0.0 0.0 0.00 0.00 0.00 72 1013.3
20260508044004 8 162 0.0 0.0 0.00 0.00 0.00 70 1013.3
20260508043506 8 162 0.0 0.0 0.00 0.00 0.00 71 1013.2
20260508043004 8 162 0.0 0.0 0.00 0.00 0.00 72 1013.2
20260508042506 8 162 0.0 0.0 0.00 0.00 0.00 73 1013.2
20260508042006 8 150 0.0 0.0 0.00 0.00 0.00 73 1013.2
20260508041003 8 136 0.0 0.0 0.00 0.00 0.00 73 1013.5
20260508040504 8 136 0.0 0.0 0.00 0.00 0.00 69 1013.5
20260508035504 8 250 0.0 0.0 0.00 0.00 0.00 69 1013.7
20260508035005 8 250 0.0 0.0 0.00 0.00 0.00 68 1013.6
20260508034511 8 250 0.0 0.0 0.00 0.00 0.00 68 1013.7
20260508034006 8 250 0.0 0.0 0.00 0.00 0.00 68 1013.6
20260508033503 8 250 0.0 0.0 0.00 0.00 0.00 65 1013.6
20260508033006 9 250 0.0 0.0 0.00 0.00 0.00 64 1013.6
20260508032503 9 250 0.0 0.0 0.00 0.00 0.00 65 1013.5
20260508032004 9 250 0.0 0.0 0.00 0.00 0.00 67 1013.6
20260508031510 9 250 0.0 0.0 0.00 0.00 0.00 65 1013.6
20260508031003 9 250 0.0 0.0 0.00 0.00 0.00 63 1013.6
20260508030503 9 250 0.0 0.0 0.00 0.00 0.00 64 1013.6
20260508030004 9 250 0.0 0.0 0.00 0.00 0.00 63 1013.7
20260508025502 8 244 0.0 0.0 0.00 0.00 0.00 64 1013.7
20260508025002 8 244 0.0 0.0 0.00 0.00 0.00 63 1013.7
20260508024508 8 236 0.0 0.0 0.00 0.00 0.00 67 1013.7
20260508024003 8 194 0.0 0.0 0.00 0.00 0.00 68 1013.7
20260508023505 8 244 0.0 0.0 0.00 0.00 0.00 70 1013.6
20260508023008 7 123 0.0 0.0 0.00 0.00 0.00 68 1013.6
20260508022506 7 122 0.0 0.0 0.00 0.00 0.00 73 1013.5
20260508022004 7 122 0.0 0.0 0.00 0.00 0.00 74 1013.5
20260508021509 7 123 0.0 0.0 0.00 0.00 0.00 76 1013.5
20260508021004 7 123 0.0 0.0 0.00 0.00 0.00 75 1013.4
20260508020504 7 122 0.0 0.0 0.00 0.00 0.00 76 1013.4
20260508020008 7 122 0.0 0.0 0.00 0.00 0.00 70 1013.3
20260508015503 7 122 0.0 0.0 0.00 0.00 0.00 70 1013.2
20260508015005 7 122 0.0 0.0 0.00 0.00 0.00 72 1013.2
20260508014506 7 123 0.0 0.0 0.00 0.00 0.00 70 1013.2
20260508014003 7 123 0.0 0.0 0.00 0.00 0.00 70 1013.2
20260508013503 7 123 0.0 0.0 0.00 0.00 0.00 70 1013.2
20260508013009 7 122 0.0 0.0 0.00 0.00 0.00 70 1013.1
20260508012508 7 123 0.0 0.0 0.00 0.00 0.00 65 1013.1
20260508012004 8 123 0.0 0.0 0.00 0.00 0.00 66 1013.0
20260508011511 8 123 0.0 0.0 0.00 0.00 0.00 66 1012.8
20260508011007 8 123 0.0 0.0 0.00 0.00 0.00 63 1012.9
20260508010503 8 122 0.0 0.0 0.00 0.00 0.00 67 1012.9
20260508010024 8 122 0.0 0.0 0.00 0.00 0.00 62 1012.8
20260508005507 8 122 0.0 0.0 0.00 0.00 0.00 60 1012.7
20260508005007 8 123 0.0 0.0 0.00 0.00 0.00 59 1012.6
20260508004522 9 123 0.0 0.0 0.00 0.00 0.00 59 1012.5
20260508004008 9 123 0.0 0.0 0.00 0.00 0.00 60 1012.6
20260508003506 10 122 0.0 0.0 0.00 0.00 0.00 55 1012.5
20260508003012 10 122 0.0 0.0 0.00 0.00 0.00 57 1012.4
20260508002006 10 122 0.0 0.0 0.00 0.00 0.00 56 1012.4
20260508001513 10 123 0.0 0.0 0.00 0.00 0.00 54 1012.3
20260508001003 11 123 0.0 0.0 0.00 0.00 0.00 55 1012.3
20260508000507 11 123 0.0 0.0 0.00 0.00 0.00 52 1012.2
20260508000014 11 295 0.0 0.0 0.00 0.00 0.00 52 1012.2
20260507235504 11 295 0.0 0.0 0.00 0.00 0.00 53 1012.2
20260507235006 11 295 0.0 0.0 0.00 0.00 0.00 51 1012.2
20260507234512 11 288 0.0 0.0 0.00 0.00 0.00 49 1012.1
20260507234007 11 284 0.0 0.0 0.00 0.00 0.00 46 1012.1
20260507233506 11 296 0.0 0.0 0.00 0.00 0.00 48 1012.1
20260507233011 11 17 0.0 4.8 0.00 0.00 0.00 47 1012.2
20260507232512 12 271 0.0 4.8 0.00 0.00 0.00 45 1012.2
20260507230507 12 291 1.6 6.4 0.00 0.00 0.00 45 1012.2
20260507230021 12 306 0.0 6.4 0.00 0.00 0.00 48 1012.2
20260507225505 12 276 0.0 3.2 0.00 0.00 0.00 45 1012.2
20260507225008 12 307 0.0 3.2 0.00 0.00 0.00 49 1012.3
20260507224517 12 270 0.0 4.8 0.00 0.00 0.00 47 1012.2
20260507224006 12 273 1.6 4.8 0.00 0.00 0.00 44 1012.2
20260507223505 12 13 0.0 3.2 0.00 0.00 0.00 49 1012.3
20260507223015 12 331 0.0 4.8 0.00 0.00 0.00 47 1012.2
20260507222507 12 313 0.0 6.4 0.00 0.00 0.00 47 1012.3
20260507222009 13 326 1.6 6.4 0.00 0.00 0.00 47 1012.3
20260507221518 13 340 1.6 4.8 0.00 0.00 0.00 47 1012.3
20260507221007 13 281 0.0 4.8 0.00 0.00 0.00 48 1012.3
20260507215507 12 304 1.6 6.4 0.00 0.00 0.00 48 1012.1
20260507215005 12 274 1.6 6.4 0.00 0.00 0.00 45 1012.2
20260507214519 12 284 1.6 4.8 0.00 0.00 0.00 47 1012.2
20260507214006 13 319 1.6 4.8 0.00 0.00 0.00 47 1012.2
20260507213510 13 271 3.2 6.4 0.00 0.00 0.00 47 1012.2
20260507213016 13 259 0.0 6.4 0.00 0.00 0.00 46 1012.2
20260507212506 13 261 1.6 4.8 0.00 0.00 0.00 46 1012.1
20260507212010 13 252 1.6 4.8 0.00 0.00 0.00 48 1012.0
20260507211524 13 280 0.0 4.8 0.00 0.00 0.00 47 1012.0
20260507211007 13 284 1.6 4.8 0.00 0.00 0.00 47 1011.9
20260507210507 12 290 1.6 4.8 0.00 0.00 0.00 48 1011.9
20260507210020 12 300 1.6 6.4 0.00 0.00 0.00 50 1011.9
20260507205008 12 281 1.6 4.8 0.00 0.00 0.00 55 1011.8
20260507204008 12 279 1.6 4.8 0.00 0.00 0.00 50 1012.0
20260507203508 12 345 1.6 4.8 0.00 0.00 0.00 50 1012.0
20260507203021 12 281 1.6 4.8 0.00 0.00 0.00 51 1011.8
20260507202509 12 287 0.0 4.8 0.00 0.00 0.00 53 1011.7
20260507202008 12 271 1.6 4.8 0.00 0.00 0.00 53 1011.8
20260507201517 12 250 0.0 4.8 0.00 0.00 0.00 50 1011.7
20260507201007 12 250 1.6 4.8 0.00 0.00 0.00 47 1012.0
20260507200504 12 276 3.2 6.4 0.00 0.00 0.00 49 1012.1
20260507200006 12 255 1.6 6.4 0.00 0.00 0.00 49 1012.0
20260507195503 13 260 1.6 4.8 0.00 0.00 0.00 51 1011.8
20260507195003 13 267 1.6 9.7 0.00 0.00 0.00 54 1011.9
20260507194511 13 288 3.2 9.7 0.00 0.00 0.00 54 1011.9
20260507194004 13 258 1.6 6.4 0.00 0.00 0.00 54 1011.9
20260507193504 13 253 1.6 8.0 0.00 0.00 0.00 46 1011.9
20260507193018 13 288 1.6 8.0 0.00 0.00 0.00 48 1012.0
20260507192509 13 167 1.6 4.8 0.00 0.00 0.00 50 1012.0
20260507192009 12 288 1.6 4.8 0.00 0.00 0.00 52 1012.0
20260507191519 12 261 1.6 4.8 0.00 0.00 0.00 49 1012.0
20260507191006 12 305 1.6 9.7 0.00 0.00 0.00 56 1012.0
20260507190502 12 240 1.6 9.7 0.00 0.00 0.00 50 1012.0
20260507190005 12 341 3.2 6.4 0.00 0.00 0.00 52 1012.2
20260507185504 12 313 1.6 4.8 0.00 0.00 0.00 49 1012.1
20260507185003 13 274 3.2 8.0 0.00 0.00 0.00 49 1012.1
20260507184513 13 309 1.6 8.0 0.00 0.00 0.00 50 1012.1
20260507184004 13 78 1.6 4.8 0.00 0.00 0.00 50 1012.2
20260507183508 13 261 1.6 4.8 0.00 0.00 0.00 49 1012.2
20260507183026 13 321 3.2 4.8 0.00 0.00 0.00 53 1012.2
20260507182506 13 252 3.2 9.7 0.00 0.00 0.00 47 1012.2
20260507182010 13 262 3.2 9.7 0.00 0.00 0.00 50 1012.2
20260507181515 13 246 1.6 4.8 0.00 0.00 0.00 53 1012.2
20260507181007 13 173 1.6 8.0 0.00 0.00 0.00 51 1012.3
20260507180506 12 250 3.2 8.0 0.00 0.00 0.00 53 1012.3
20260507180027 12 267 0.0 4.8 0.00 0.00 0.00 51 1012.3
20260507175516 13 312 1.6 4.8 0.00 0.00 0.00 49 1012.4
20260507175002 13 185 1.6 6.4 0.00 0.00 0.00 49 1012.3
20260507174511 13 272 3.2 11.3 0.00 0.00 0.00 49 1012.3
20260507174003 13 340 1.6 11.3 0.00 0.00 0.00 49 1012.3
20260507173504 13 211 3.2 8.0 0.00 0.00 0.00 44 1012.2
20260507173013 13 250 3.2 6.4 0.00 0.00 0.00 48 1012.3
20260507172504 13 246 1.6 6.4 0.00 0.00 0.00 50 1012.3
20260507172008 13 148 1.6 6.4 0.00 0.00 0.00 50 1012.4
20260507171518 13 276 0.0 6.4 0.00 0.00 0.00 46 1012.3
20260507171007 13 273 1.6 4.8 0.00 0.00 0.00 51 1012.4
20260507170513 13 348 1.6 4.8 0.00 0.00 0.00 51 1012.4
20260507170022 12 12 0.0 4.8 0.00 0.00 0.00 54 1012.4
20260507165509 13 287 3.2 4.8 0.00 0.00 0.00 49 1012.4
20260507165010 13 87 1.6 4.8 0.00 0.00 0.00 48 1012.4
20260507164527 13 351 1.6 4.8 0.00 0.00 0.00 52 1012.4
20260507164009 12 250 1.6 4.8 0.00 0.00 0.00 48 1012.4
20260507163504 13 223 1.6 4.8 0.00 0.00 0.00 49 1012.5
20260507163012 12 219 0.0 4.8 0.00 0.00 0.00 51 1012.5
20260507162507 12 269 1.6 4.8 0.00 0.00 0.00 52 1012.7
20260507162008 13 282 1.6 4.8 0.00 0.00 0.00 50 1012.5
20260507161513 13 250 1.6 4.8 0.00 0.00 0.00 53 1012.5
20260507161008 12 302 1.6 6.4 0.00 0.00 0.00 50 1012.6
20260507160508 13 286 1.6 6.4 0.00 0.00 0.00 52 1012.6
20260507160035 13 346 1.6 6.4 0.00 0.00 0.00 48 1012.5
20260507155508 12 300 1.6 4.8 0.00 0.00 0.00 50 1012.6
20260507155009 12 278 1.6 4.8 0.00 0.00 0.00 48 1012.6
20260507154524 13 291 1.6 4.8 0.00 0.00 0.00 49 1012.6
20260507154010 12 286 1.6 4.8 0.00 0.00 0.00 51 1012.6
20260507153512 12 267 1.6 6.4 0.00 0.00 0.00 52 1012.6
20260507153023 12 263 1.6 6.4 0.00 0.00 0.00 45 1012.5
20260507152509 13 296 1.6 6.4 0.00 0.00 0.00 53 1012.5
20260507152004 12 254 0.0 4.8 0.00 0.00 0.00 55 1012.6
20260507151512 12 178 1.6 4.8 0.00 0.00 0.00 49 1012.6
20260507151008 12 169 1.6 4.8 0.00 0.00 0.00 50 1012.6
20260507150507 12 284 1.6 3.2 0.00 0.00 0.00 57 1012.7
20260507150020 12 261 1.6 3.2 0.00 0.00 0.00 53 1012.7
20260507145510 12 259 0.0 3.2 0.00 0.00 0.00 54 1012.7
20260507145005 12 281 0.0 3.2 0.00 0.00 0.00 56 1012.7
20260507144528 12 192 1.6 3.2 0.00 0.00 0.00 51 1012.7
20260507144007 12 244 0.0 3.2 0.00 0.00 0.00 53 1012.7
20260507143507 12 253 0.0 3.2 0.00 0.00 0.00 57 1012.8
20260507143023 12 253 1.6 3.2 0.00 0.00 0.00 63 1012.8
20260507142509 12 294 1.6 3.2 0.00 0.00 0.00 61 1012.8
20260507142013 11 221 1.6 3.2 0.00 0.00 0.00 59 1012.8
20260507141526 11 212 1.6 4.8 0.00 0.00 0.00 59 1012.9
20260507141010 11 277 1.6 4.8 0.00 0.00 0.00 62 1012.9
20260507140504 11 263 0.0 0.0 0.00 0.00 0.00 62 1012.9
20260507140013 10 259 0.0 0.0 0.00 0.00 0.00 65 1012.9
20260507135505 10 239 0.0 0.0 0.00 0.00 0.00 68 1013.1
20260507135005 10 248 0.0 1.6 0.00 0.00 0.00 65 1013.1
20260507134516 10 288 0.0 3.2 0.00 0.00 0.00 68 1013.1
20260507134007 9 285 0.0 3.2 0.00 0.00 0.00 71 1013.2
20260507133508 9 334 0.0 3.2 0.00 0.00 0.00 71 1013.2
20260507133021 8 344 0.0 3.2 0.00 0.00 0.00 72 1013.2
20260507132510 8 222 0.0 0.0 0.00 0.00 0.00 74 1013.3
20260507132009 8 182 0.0 0.0 0.00 0.00 0.00 74 1013.2
20260507131523 8 167 0.0 0.0 0.00 0.00 0.00 76 1013.2
20260507131009 8 215 0.0 0.0 0.00 0.00 0.00 76 1013.2
20260507130507 8 209 0.0 0.0 0.00 0.00 0.00 76 1013.2
20260507130029 7 273 0.0 0.0 0.00 0.00 0.00 76 1013.2
20260507125513 7 273 0.0 0.0 0.00 0.00 0.00 75 1013.2
20260507125011 7 261 0.0 0.0 0.00 0.00 0.00 78 1013.2
20260507124518 7 292 0.0 0.0 0.00 0.00 0.00 78 1013.2
20260507124005 7 269 0.0 0.0 0.00 0.00 0.00 79 1013.3
20260507123506 7 244 0.0 0.0 0.00 0.00 0.00 80 1013.2
20260507123019 7 165 0.0 0.0 0.00 0.00 0.00 80 1013.2
20260507122507 7 188 0.0 0.0 0.00 0.00 0.00 80 1013.2
20260507122009 6 255 0.0 0.0 0.00 0.00 0.00 81 1013.1
20260507121522 6 224 0.0 0.0 0.00 0.00 0.00 80 1013.1
20260507121010 6 191 0.0 4.8 0.00 0.00 0.00 81 1013.1
20260507120510 6 105 0.0 4.8 0.00 0.00 0.00 81 1013.0
20260507120023 6 182 0.0 3.2 0.00 0.00 0.00 82 1012.9
20260507115508 6 195 0.0 3.2 0.00 0.00 0.00 82 1013.0
20260507115012 6 199 0.0 3.2 0.00 0.00 0.00 83 1012.9
20260507114529 6 192 0.0 3.2 0.00 0.00 0.00 83 1012.9
20260507114010 6 184 0.0 3.2 0.00 0.00 0.00 84 1013.0
20260507113506 5 178 0.0 3.2 0.00 0.00 0.00 85 1013.0
20260507113019 5 181 0.0 0.0 0.00 0.00 0.00 86 1012.9
20260507112510 5 181 0.0 0.0 0.00 0.00 0.00 87 1012.9
20260507112010 5 154 0.0 0.0 0.00 0.00 0.00 87 1012.9
20260507111519 4 154 0.0 0.0 0.00 0.00 0.00 87 1012.8
20260507111002 4 154 0.0 0.0 0.00 0.00 0.00 87 1012.9
20260507110502 4 154 0.0 0.0 0.00 0.00 0.00 87 1012.8